When you browse on this site, cookies collect data to enhance your experience and personalize the content and advertising you see.
Visit our Privacy Policy to learn more. By continuing to use the site, you agree to this use of cookies and data.
  • In Belgien
  • Länderverzeichnis
  • Für 7 Tage
  • Wassertemperatur
  • Satellitenkarten
  • Wetterkarte
  • Widgets
  • user-avatar
    Anmelden

    Stündliche Wetter Mostar

    Heute, 17 Februar, Sonntag

    Zeit Temperatur Niederschläge Wind Luftdruck Luftfeuchtigkeit
    00:00 +6°C° 0 mm 2 m/S 765 mmHg 63%
    01:00 +7°C° 0 mm 1 m/S 765 mmHg 63%
    02:00 +6°C° 0 mm 2 m/S 764 mmHg 61%
    03:00 +5°C° 0 mm 2 m/S 764 mmHg 59%
    04:00 +5°C° 0 mm 2 m/S 764 mmHg 57%
    05:00 +5°C° 0 mm 2 m/S 764 mmHg 56%
    06:00 +5°C° 0 mm 2 m/S 764 mmHg 56%
    07:00 +6°C° 0 mm 2 m/S 764 mmHg 55%
    08:00 +9°C° 0 mm 1 m/S 764 mmHg 52%
    09:00 +11°C° 0 mm 1 m/S 763 mmHg 48%
    10:00 +13°C° 0 mm 1 m/S 763 mmHg 45%
    11:00 +14°C° 0 mm 1 m/S 763 mmHg 44%
    12:00 +15°C° 0 mm 1 m/S 763 mmHg 43%
    13:00 +16°C° 0 mm 1 m/S 763 mmHg 41%
    14:00 +16°C° 0 mm 1 m/S 762 mmHg 46%
    15:00 +15°C° 0 mm 1 m/S 762 mmHg 51%
    16:00 +15°C° 0 mm 1 m/S 762 mmHg 56%
    17:00 +13°C° 0 mm 1 m/S 762 mmHg 60%
    18:00 +12°C° 0 mm 1 m/S 762 mmHg 64%
    19:00 +11°C° 0 mm 1 m/S 762 mmHg 67%
    20:00 +10°C° 0 mm 1 m/S 762 mmHg 67%
    21:00 +10°C° 0 mm 1 m/S 762 mmHg 67%
    22:00 +10°C° 0 mm 1 m/S 762 mmHg 67%
    23:00 +9°C° 0 mm 1 m/S 762 mmHg 65%

    Morgen, 18 Februar, Montag

    Zeit Temperatur Niederschläge Wind Luftdruck Luftfeuchtigkeit
    00:00 +9°C° 0 mm 1 m/S 762 mmHg 64%
    01:00 +9°C° 0 mm 1 m/S 762 mmHg 62%
    02:00 +9°C° 0 mm 1 m/S 762 mmHg 61%
    03:00 +9°C° 0 mm 1 m/S 762 mmHg 60%
    04:00 +8°C° 0 mm 1 m/S 762 mmHg 58%
    05:00 +8°C° 0 mm 1 m/S 762 mmHg 58%
    06:00 +8°C° 0 mm 1 m/S 762 mmHg 57%
    07:00 +8°C° 0 mm 1 m/S 761 mmHg 56%
    08:00 +10°C° 0 mm 1 m/S 761 mmHg 52%
    09:00 +12°C° 0 mm 1 m/S 761 mmHg 48%
    10:00 +13°C° 0 mm 0 m/S 761 mmHg 44%
    11:00 +15°C° 0 mm 1 m/S 761 mmHg 44%
    12:00 +15°C° 0 mm 1 m/S 761 mmHg 44%
    13:00 +16°C° 0 mm 1 m/S 760 mmHg 44%
    14:00 +15°C° 0 mm 1 m/S 760 mmHg 49%
    15:00 +15°C° 0 mm 1 m/S 760 mmHg 53%
    16:00 +15°C° 0 mm 1 m/S 760 mmHg 58%
    17:00 +13°C° 0 mm 1 m/S 760 mmHg 63%
    18:00 +11°C° 0 mm 0 m/S 760 mmHg 68%
    19:00 +9°C° 0 mm 0 m/S 760 mmHg 74%
    20:00 +9°C° 0 mm 0 m/S 760 mmHg 74%
    21:00 +9°C° 0 mm 0 m/S 760 mmHg 75%
    22:00 +10°C° 0 mm 1 m/S 760 mmHg 76%
    23:00 +9°C° 0 mm 1 m/S 760 mmHg 76%

    übermorgen, 19 Februar, Dienstag

    Zeit Temperatur Niederschläge Wind Luftdruck Luftfeuchtigkeit
    00:00 +9°C° 0 mm 1 m/S 760 mmHg 76%
    01:00 +9°C° 0 mm 1 m/S 761 mmHg 77%
    02:00 +9°C° 0 mm 1 m/S 760 mmHg 77%
    03:00 +8°C° 0 mm 1 m/S 760 mmHg 78%
    04:00 +8°C° 0 mm 1 m/S 760 mmHg 78%
    05:00 +8°C° 0 mm 1 m/S 760 mmHg 79%
    06:00 +8°C° 0 mm 1 m/S 760 mmHg 79%
    07:00 +8°C° 0 mm 1 m/S 760 mmHg 79%
    08:00 +9°C° 0 mm 1 m/S 760 mmHg 74%
    09:00 +11°C° 0 mm 1 m/S 760 mmHg 69%
    10:00 +13°C° 0 mm 1 m/S 760 mmHg 64%
    11:00 +13°C° 0 mm 1 m/S 759 mmHg 63%
    12:00 +14°C° 0 mm 2 m/S 759 mmHg 62%
    13:00 +15°C° 0 mm 2 m/S 759 mmHg 61%
    14:00 +14°C° 0 mm 2 m/S 759 mmHg 64%
    15:00 +14°C° 0 mm 1 m/S 758 mmHg 66%
    16:00 +14°C° 0 mm 1 m/S 758 mmHg 69%
    17:00 +13°C° 0 mm 1 m/S 758 mmHg 75%
    18:00 +11°C° 0 mm 1 m/S 759 mmHg 80%
    19:00 +9°C° 0 mm 0 m/S 759 mmHg 86%
    20:00 +9°C° 0 mm 0 m/S 759 mmHg 87%
    21:00 +9°C° 0 mm 0 m/S 760 mmHg 88%
    22:00 +10°C° 0 mm 1 m/S 760 mmHg 89%
    23:00 +9°C° 0 mm 1 m/S 760 mmHg 89%

    20 Februar, Mittwoch

    Zeit Temperatur Niederschläge Wind Luftdruck Luftfeuchtigkeit
    00:00 +9°C° 0 mm 1 m/S 760 mmHg 90%
    01:00 +9°C° 0 mm 1 m/S 760 mmHg 90%
    02:00 +9°C° 0 mm 1 m/S 760 mmHg 90%
    03:00 +8°C° 0 mm 1 m/S 760 mmHg 90%
    04:00 +8°C° 0 mm 1 m/S 760 mmHg 90%
    05:00 +8°C° 0 mm 1 m/S 760 mmHg 89%
    06:00 +8°C° 0 mm 1 m/S 760 mmHg 88%
    07:00 +8°C° 0 mm 1 m/S 760 mmHg 86%
    08:00 +9°C° 0 mm 1 m/S 760 mmHg 79%
    09:00 +10°C° 0 mm 0 m/S 761 mmHg 72%
    10:00 +12°C° 0 mm 0 m/S 761 mmHg 65%
    11:00 +12°C° 0 mm 0 m/S 761 mmHg 62%
    12:00 +14°C° 0 mm 1 m/S 761 mmHg 59%
    13:00 +15°C° 0 mm 1 m/S 761 mmHg 56%
    14:00 +15°C° 0 mm 1 m/S 761 mmHg 58%
    15:00 +15°C° 0 mm 2 m/S 761 mmHg 61%
    16:00 +14°C° 0 mm 2 m/S 761 mmHg 63%
    17:00 +13°C° 0 mm 2 m/S 761 mmHg 67%
    18:00 +12°C° 0 mm 1 m/S 761 mmHg 72%
    19:00 +11°C° 0 mm 1 m/S 762 mmHg 77%
    20:00 +11°C° 0 mm 1 m/S 762 mmHg 77%
    21:00 +10°C° 0 mm 1 m/S 762 mmHg 77%
    22:00 +9°C° 0 mm 2 m/S 763 mmHg 77%
    23:00 +9°C° 0 mm 2 m/S 763 mmHg 77%

    21 Februar, Donnerstag

    Zeit Temperatur Niederschläge Wind Luftdruck Luftfeuchtigkeit
    00:00 +8°C° 0 mm 2 m/S 763 mmHg 76%
    01:00 +8°C° 0 mm 2 m/S 763 mmHg 75%
    02:00 +8°C° 0 mm 2 m/S 763 mmHg 75%
    03:00 +7°C° 0 mm 2 m/S 763 mmHg 74%
    04:00 +7°C° 0 mm 2 m/S 763 mmHg 74%
    05:00 +7°C° 0 mm 2 m/S 763 mmHg 73%
    06:00 +7°C° 0 mm 2 m/S 763 mmHg 72%
    07:00 +7°C° 0 mm 2 m/S 763 mmHg 72%
    08:00 +8°C° 0 mm 2 m/S 764 mmHg 64%
    09:00 +11°C° 0 mm 1 m/S 764 mmHg 57%
    10:00 +13°C° 0 mm 1 m/S 764 mmHg 50%
    11:00 +14°C° 0 mm 1 m/S 764 mmHg 46%
    12:00 +15°C° 0 mm 1 m/S 764 mmHg 42%
    13:00 +16°C° 0 mm 1 m/S 763 mmHg 38%
    14:00 +16°C° 0 mm 1 m/S 763 mmHg 42%
    15:00 +16°C° 0 mm 1 m/S 763 mmHg 45%
    16:00 +16°C° 0 mm 2 m/S 763 mmHg 49%
    17:00 +14°C° 0 mm 2 m/S 763 mmHg 53%
    18:00 +13°C° 0 mm 2 m/S 763 mmHg 58%
    19:00 +10°C° 0 mm 2 m/S 764 mmHg 63%
    20:00 +10°C° 0 mm 2 m/S 764 mmHg 63%
    21:00 +9°C° 0 mm 2 m/S 764 mmHg 63%
    22:00 +9°C° 0 mm 2 m/S 764 mmHg 63%
    23:00 +9°C° 0 mm 2 m/S 764 mmHg 62%

    22 Februar, Freitag

    Zeit Temperatur Niederschläge Wind Luftdruck Luftfeuchtigkeit
    00:00 +8°C° 0 mm 2 m/S 764 mmHg 62%
    01:00 +8°C° 0 mm 2 m/S 764 mmHg 61%
    02:00 +8°C° 0 mm 2 m/S 764 mmHg 61%
    03:00 +8°C° 0 mm 2 m/S 764 mmHg 60%
    04:00 +7°C° 0 mm 2 m/S 764 mmHg 60%
    05:00 +7°C° 0 mm 2 m/S 764 mmHg 60%
    06:00 +7°C° 0 mm 2 m/S 764 mmHg 60%
    07:00 +7°C° 0 mm 2 m/S 764 mmHg 60%
    08:00 +9°C° 0 mm 2 m/S 764 mmHg 55%
    09:00 +12°C° 0 mm 2 m/S 764 mmHg 50%
    10:00 +14°C° 0 mm 1 m/S 764 mmHg 45%
    11:00 +15°C° 0 mm 2 m/S 764 mmHg 42%
    12:00 +16°C° 0 mm 2 m/S 764 mmHg 40%
    13:00 +17°C° 0 mm 2 m/S 764 mmHg 38%
    14:00 +17°C° 0 mm 2 m/S 764 mmHg 42%
    15:00 +16°C° 0 mm 2 m/S 764 mmHg 47%
    16:00 +16°C° 0 mm 2 m/S 764 mmHg 51%
    17:00 +14°C° 0 mm 2 m/S 764 mmHg 56%
    18:00 +12°C° 0 mm 3 m/S 764 mmHg 61%
    19:00 +10°C° 0 mm 3 m/S 765 mmHg 66%
    20:00 +10°C° 0 mm 3 m/S 765 mmHg 68%
    21:00 +9°C° 0 mm 3 m/S 765 mmHg 71%
    22:00 +9°C° 0 mm 3 m/S 765 mmHg 74%
    23:00 +9°C° 0 mm 3 m/S 766 mmHg 74%
    Mehr zeigen